THOR ABLESTAR DEB, 544

Orbit data source: Space-Track

THOR ABLESTAR DEB, 544 is space debris in LEO originally from a launch on Thu, 29 Jun 1961 UTC launched from the Air Force Eastern Test Range (AFETR). Debris objects in space refer to the collection of defunct objects orbiting the Earth. Examples of debris include non-operational satellites, rocket bodies, and fragments generated from explosions, collisions, or faulty payload assembly.

Loading next visibility...
Identifier
544, 1961-015GD
Orbit
LEO
Last TLE update
11 hours ago
Origin
Manufacturer
Unknown
Mission
Spacecraft
Bus & Motor
Unknown
Mass
Unknown
Launch date (UTC)
1961-06-29 (64 years ago)
Launch vehicle
Unknown
Launch site
Air Force Eastern Test Range (AFETR)
Object type
Payload
Rocket body
Debris
Shape & HBR
Unknown
Radar Cross Section
Small (<0.1 m²)

Expand to show TLE details & history

TLE from 11 hours ago
0 THOR ABLESTAR DEB
1 00544U 61015GD  25183.72032799  .00000028  00000-0  12498-3 0  9991
2 00544  66.8750 302.3238 0181354 140.6542 328.4594 13.55972705154225
Epoch: 2025-07-02T17:17Z
TLE epoch observation values (Epoch: 2025-07-02T17:17:16.338Z)
Latitude
61.1141°
Longitude
-108.34559°
Altitude
945.828 km
Speed
7.442 km/s
True Right ascension
04h 47m 52s
True Declination
60° 58' 20"
Sunlit
Object was in daylight at epoch
Visualization orbit readout
Latitude
-66.18487°
Longitude
46.62044°
Altitude
1,170.353 km
Speed
7.221 km/s
Apparent Right ascension
06h 18m 52s
Apparent Declination
-78° 10' 57"
Sunlit
Object is in full shadow
Visualization observer readout
Local Sidereal Time
16:28:50
Azimuth
188.484° SSW
Elevation
-50.119°
Doppler factor
1
Orbital elements
Apogee altitude
1,183.466 km
Perigee altitude
914.086 km
Semi-major axis
7,426.913 km
Eccentricity
0.01814
Inclination
66.875°
RAAN
302.3238°
Arg. of periapsis
140.6542°
True anomaly
Unknown
Mean anomaly
328.4594°
Eccentric anomaly
Unknown
Mean motion
3.39102 °/min
Orbital period
106.16 mins
BSTAR
0.00012498
Loading maneuver chart data...
Loading SW <> Apogee altitude chart data...

THOR ABLESTAR DEB Visibility forecast

Observer location: undefined°, undefined°

Span
Click to sort rows by Start time (UTC) header in descending order
Start Az.
Max El. time (UTC)
Max El. Az.
Max El.
End time (UTC)
End Az.
12 mins2025-07-03 08:47:26.488Z178.455° S2025-07-03 08:53:26.488Z112.829° SE34.597°2025-07-03 08:59:26.488Z42.948° NE
10 mins2025-07-03 10:38:26.488Z251.869° W2025-07-03 10:42:26.488Z301.382° NW30.728°2025-07-03 10:48:26.488Z13.076° NNE
10 mins2025-07-03 18:06:26.488Z345.033° N2025-07-03 18:11:26.488Z67.389° ENE36.794°2025-07-03 18:16:26.488Z128.91° SE
8 mins2025-07-03 19:56:26.488Z296.609° NW2025-07-03 19:59:26.488Z259.701° W22.853°2025-07-03 20:04:26.488Z201.301° SSW
|